Time,TemperatureF,DewpointF,PressureIn,WindDirection,WindDirectionDegrees,WindSpeedMPH,WindSpeedGustMPH,Humidity,HourlyPrecipIn,Conditions,Clouds,dailyrainin,SoftwareType,DateUTC
2013-08-12 00:11:00,67.0,60.0,-100.00,North,358,0.0,0.0,79,-99.99,,,-99.99,,2013-08-12 06:11:00,
2013-08-12 00:22:00,68.0,62.0,-100.00,North,358,0.0,0.0,80,-99.99,,,-99.99,,2013-08-12 06:22:00,
2013-08-12 00:32:00,67.0,61.0,-100.00,North,358,0.0,0.0,80,-99.99,,,-99.99,,2013-08-12 06:32:00,
2013-08-12 00:42:00,67.0,61.0,-100.00,North,358,0.0,0.0,80,-99.99,,,-99.99,,2013-08-12 06:42:00,
2013-08-12 00:52:00,67.0,61.0,-100.00,North,358,0.0,0.0,81,-99.99,,,-99.99,,2013-08-12 06:52:00,
2013-08-12 01:01:00,67.0,61.0,-100.00,North,358,0.0,0.0,82,-99.99,,,-99.99,,2013-08-12 07:01:00,
2013-08-12 01:12:00,65.0,59.0,-100.00,North,358,0.0,0.0,82,-99.99,,,-99.99,,2013-08-12 07:12:00,
2013-08-12 01:22:00,65.0,60.0,-100.00,North,358,0.0,0.0,83,-99.99,,,-99.99,,2013-08-12 07:22:00,
2013-08-12 01:33:00,65.0,60.0,-100.00,North,358,0.0,0.0,84,-99.99,,,-99.99,,2013-08-12 07:33:00,
2013-08-12 01:43:00,66.0,61.0,-100.00,North,358,0.0,0.0,84,-99.99,,,-99.99,,2013-08-12 07:43:00,
2013-08-12 01:52:00,65.0,60.0,-100.00,North,358,0.0,0.0,85,-99.99,,,-99.99,,2013-08-12 07:52:00,
2013-08-12 02:02:00,65.0,60.0,-100.00,North,358,0.0,0.0,85,-99.99,,,-99.99,,2013-08-12 08:02:00,
2013-08-12 02:11:00,65.0,61.0,-100.00,North,358,0.0,0.0,86,-99.99,,,-99.99,,2013-08-12 08:11:00,
2013-08-12 02:22:00,65.0,61.0,-100.00,North,358,0.0,0.0,86,-99.99,,,-99.99,,2013-08-12 08:22:00,
2013-08-12 02:33:00,64.0,60.0,-100.00,North,358,0.0,0.0,86,-99.99,,,-99.99,,2013-08-12 08:33:00,
2013-08-12 02:43:00,64.0,60.0,-100.00,North,358,0.0,0.0,86,-99.99,,,-99.99,,2013-08-12 08:43:00,
2013-08-12 02:53:00,63.0,59.0,-100.00,North,358,0.0,0.0,87,-99.99,,,-99.99,,2013-08-12 08:53:00,
2013-08-12 03:11:00,63.0,59.0,-100.00,North,358,0.0,0.0,88,-99.99,,,-99.99,,2013-08-12 09:11:00,
2013-08-12 03:22:00,63.0,59.0,-100.00,North,358,0.0,0.0,88,-99.99,,,-99.99,,2013-08-12 09:22:00,
2013-08-12 03:32:00,63.0,60.0,-100.00,North,358,0.0,0.0,89,-99.99,,,-99.99,,2013-08-12 09:32:00,
2013-08-12 03:43:00,63.0,60.0,-100.00,North,358,0.0,0.0,89,-99.99,,,-99.99,,2013-08-12 09:43:00,
2013-08-12 03:53:00,63.0,60.0,-100.00,North,358,0.0,0.0,89,-99.99,,,-99.99,,2013-08-12 09:53:00,
2013-08-12 04:01:00,63.0,60.0,-100.00,North,358,0.0,0.0,89,-99.99,,,-99.99,,2013-08-12 10:01:00,
2013-08-12 04:11:00,63.0,60.0,-100.00,North,358,0.0,0.0,89,-99.99,,,-99.99,,2013-08-12 10:11:00,
2013-08-12 05:32:00,61.0,59.0,-100.00,North,358,0.0,0.0,92,-99.99,,,-99.99,,2013-08-12 11:32:00,
2013-08-12 05:42:00,61.0,59.0,-100.00,North,358,0.0,0.0,92,-99.99,,,-99.99,,2013-08-12 11:42:00,
2013-08-12 05:53:00,61.0,59.0,-100.00,North,358,0.0,0.0,92,-99.99,,,-99.99,,2013-08-12 11:53:00,
2013-08-12 06:02:00,61.0,59.0,-100.00,North,358,0.0,0.0,92,-99.99,,,-99.99,,2013-08-12 12:02:00,
2013-08-12 06:11:00,61.0,59.0,-100.00,North,358,0.0,0.0,92,-99.99,,,-99.99,,2013-08-12 12:11:00,
2013-08-12 06:22:00,61.0,59.0,-100.00,North,358,0.0,0.0,92,-99.99,,,-99.99,,2013-08-12 12:22:00,
2013-08-12 06:32:00,61.0,59.0,-100.00,North,358,0.0,0.0,93,-99.99,,,-99.99,,2013-08-12 12:32:00,
2013-08-12 06:43:00,61.0,59.0,-100.00,North,358,0.0,0.0,93,-99.99,,,-99.99,,2013-08-12 12:43:00,
2013-08-12 06:52:00,61.0,59.0,-100.00,North,358,0.0,0.0,93,-99.99,,,-99.99,,2013-08-12 12:52:00,
2013-08-12 07:01:00,61.0,59.0,-100.00,North,358,0.0,0.0,93,-99.99,,,-99.99,,2013-08-12 13:01:00,
2013-08-12 07:11:00,61.0,59.0,-100.00,North,358,0.0,0.0,93,-99.99,,,-99.99,,2013-08-12 13:11:00,
2013-08-12 07:22:00,61.0,59.0,-100.00,North,358,0.0,0.0,93,-99.99,,,-99.99,,2013-08-12 13:22:00,
2013-08-12 07:32:00,58.0,56.0,-100.00,North,358,0.0,0.0,93,-99.99,,,-99.99,,2013-08-12 13:32:00,
2013-08-12 07:43:00,60.0,58.0,-100.00,North,358,0.0,0.0,92,-99.99,,,-99.99,,2013-08-12 13:43:00,
2013-08-12 07:53:00,61.0,59.0,-100.00,North,358,0.0,0.0,92,-99.99,,,-99.99,,2013-08-12 13:53:00,
2013-08-12 08:02:00,61.0,59.0,-100.00,North,358,0.0,0.0,92,-99.99,,,-99.99,,2013-08-12 14:02:00,
2013-08-12 08:11:00,61.0,59.0,-100.00,North,358,0.0,0.0,92,-99.99,,,-99.99,,2013-08-12 14:11:00,
2013-08-12 08:22:00,61.0,58.0,-100.00,North,358,0.0,0.0,91,-99.99,,,-99.99,,2013-08-12 14:22:00,
2013-08-12 08:32:00,62.0,59.0,-100.00,North,358,0.0,0.0,91,-99.99,,,-99.99,,2013-08-12 14:32:00,
2013-08-12 08:42:00,63.0,60.0,-100.00,North,358,0.0,0.0,91,-99.99,,,-99.99,,2013-08-12 14:42:00,
2013-08-12 08:53:00,63.0,60.0,-100.00,North,358,0.0,0.0,91,-99.99,,,-99.99,,2013-08-12 14:53:00,
2013-08-12 09:02:00,63.0,60.0,-100.00,North,358,0.0,0.0,91,-99.99,,,-99.99,,2013-08-12 15:02:00,
2013-08-12 09:11:00,63.0,60.0,-100.00,North,358,0.0,0.0,91,-99.99,,,-99.99,,2013-08-12 15:11:00,
2013-08-12 09:22:00,63.0,60.0,-100.00,North,358,0.0,0.0,91,-99.99,,,-99.99,,2013-08-12 15:22:00,
2013-08-12 09:33:00,67.0,62.0,-100.00,North,358,0.0,0.0,85,-99.99,,,-99.99,,2013-08-12 15:33:00,
2013-08-12 09:43:00,67.0,62.0,-100.00,North,358,0.0,0.0,85,-99.99,,,-99.99,,2013-08-12 15:43:00,
2013-08-12 09:52:00,67.0,62.0,-100.00,North,358,0.0,0.0,85,-99.99,,,-99.99,,2013-08-12 15:52:00,
2013-08-12 10:01:00,67.0,62.0,-100.00,North,358,0.0,0.0,85,-99.99,,,-99.99,,2013-08-12 16:01:00,
2013-08-12 10:11:00,67.0,62.0,-100.00,North,358,0.0,0.0,85,-99.99,,,-99.99,,2013-08-12 16:11:00,
2013-08-12 10:33:00,72.0,64.0,-100.00,North,358,0.0,0.0,75,-99.99,,,-99.99,,2013-08-12 16:33:00,
2013-08-12 10:43:00,72.0,64.0,-100.00,North,358,0.0,0.0,75,-99.99,,,-99.99,,2013-08-12 16:43:00,
2013-08-12 10:53:00,72.0,64.0,-100.00,North,358,0.0,0.0,75,-99.99,,,-99.99,,2013-08-12 16:53:00,
2013-08-12 11:02:00,72.0,64.0,-100.00,North,358,0.0,0.0,75,-99.99,,,-99.99,,2013-08-12 17:02:00,
2013-08-12 11:11:00,72.0,64.0,-100.00,North,358,0.0,0.0,75,-99.99,,,-99.99,,2013-08-12 17:11:00,
2013-08-12 12:11:00,75.0,63.0,-100.00,North,358,0.0,0.0,66,-99.99,,,-99.99,,2013-08-12 18:11:00,
2013-08-12 12:24:00,75.0,63.0,-100.00,North,358,0.0,0.0,66,-99.99,,,-99.99,,2013-08-12 18:24:00,
2013-08-12 12:32:00,76.0,62.0,-100.00,North,358,0.0,0.0,62,-99.99,,,-99.99,,2013-08-12 18:32:00,
2013-08-12 12:43:00,76.0,62.0,-100.00,North,358,0.0,0.0,62,-99.99,,,-99.99,,2013-08-12 18:43:00,
2013-08-12 12:52:00,76.0,62.0,-100.00,North,358,0.0,0.0,62,-99.99,,,-99.99,,2013-08-12 18:52:00,
2013-08-12 13:02:00,76.0,62.0,-100.00,North,358,0.0,0.0,62,-99.99,,,-99.99,,2013-08-12 19:02:00,
2013-08-12 14:32:00,79.0,60.0,-100.00,West,279,0.0,0.0,53,-99.99,,,-99.99,,2013-08-12 20:32:00,